When you browse on this site, cookies collect data to enhance your experience and personalize the content and advertising you see.
Visit our Privacy Policy to learn more. By continuing to use the site, you agree to this use of cookies and data.
  • In Sweden
  • List of Countries
  • For 7 days
  • Water Temperature
  • Satellite Maps
  • Weather Map
  • Weather Widgets
  • user-avatar
    Login

    Hourly Weather Stroud

    Today, 24 June, Monday

    Time Temperature Precipitation Wind Pressure Humidity
    00:00 +15°C° 0 mm 2 mps 742 mmHg 95%
    01:00 +15°C° 0.4 mm 2 mps 742 mmHg 95%
    02:00 +15°C° 0.4 mm 1 mps 742 mmHg 96%
    03:00 +13°C° 0.4 mm 0 mps 741 mmHg 97%
    04:00 +14°C° 0.2 mm 0 mps 742 mmHg 96%
    05:00 +16°C° 0.2 mm 1 mps 742 mmHg 96%
    06:00 +16°C° 0.2 mm 1 mps 742 mmHg 95%
    07:00 +18°C° 0 mm 1 mps 742 mmHg 94%
    08:00 +19°C° 0 mm 1 mps 743 mmHg 93%
    09:00 +19°C° 0 mm 1 mps 743 mmHg 92%
    10:00 +19°C° 0.1 mm 2 mps 744 mmHg 90%
    11:00 +20°C° 0.1 mm 3 mps 744 mmHg 87%
    12:00 +20°C° 0.1 mm 3 mps 744 mmHg 84%
    13:00 +21°C° 0 mm 4 mps 744 mmHg 81%
    14:00 +21°C° 0 mm 4 mps 744 mmHg 78%
    15:00 +21°C° 0 mm 4 mps 745 mmHg 75%
    16:00 +21°C° 0 mm 3 mps 745 mmHg 77%
    17:00 +21°C° 0 mm 3 mps 745 mmHg 79%
    18:00 +20°C° 0 mm 2 mps 745 mmHg 81%
    19:00 +19°C° 0 mm 2 mps 745 mmHg 83%
    20:00 +19°C° 0 mm 1 mps 745 mmHg 85%
    21:00 +15°C° 0 mm 0 mps 746 mmHg 87%
    22:00 +16°C° 0.1 mm 1 mps 745 mmHg 89%
    23:00 +16°C° 0.1 mm 1 mps 745 mmHg 90%

    Tomorrow, 25 June, Tuesday

    Time Temperature Precipitation Wind Pressure Humidity
    00:00 +16°C° 0.1 mm 1 mps 745 mmHg 92%
    01:00 +16°C° 0.9 mm 1 mps 745 mmHg 94%
    02:00 +16°C° 0.9 mm 2 mps 745 mmHg 96%
    03:00 +16°C° 0.9 mm 2 mps 744 mmHg 97%
    04:00 +16°C° 1 mm 2 mps 744 mmHg 98%
    05:00 +16°C° 1 mm 2 mps 744 mmHg 98%
    06:00 +15°C° 1 mm 2 mps 744 mmHg 98%
    07:00 +16°C° 1.1 mm 2 mps 745 mmHg 98%
    08:00 +16°C° 1.1 mm 2 mps 745 mmHg 98%
    09:00 +16°C° 1.1 mm 2 mps 745 mmHg 98%
    10:00 +16°C° 0.8 mm 2 mps 745 mmHg 97%
    11:00 +16°C° 0.8 mm 3 mps 745 mmHg 97%
    12:00 +16°C° 0.8 mm 3 mps 745 mmHg 97%
    13:00 +17°C° 0.2 mm 3 mps 746 mmHg 97%
    14:00 +17°C° 0.2 mm 2 mps 746 mmHg 96%
    15:00 +18°C° 0.2 mm 2 mps 746 mmHg 95%
    16:00 +18°C° 0.1 mm 2 mps 746 mmHg 95%
    17:00 +17°C° 0.1 mm 3 mps 747 mmHg 95%
    18:00 +17°C° 0.1 mm 3 mps 747 mmHg 95%
    19:00 +17°C° 0.1 mm 3 mps 748 mmHg 96%
    20:00 +16°C° 0.1 mm 2 mps 748 mmHg 97%
    21:00 +16°C° 0.1 mm 2 mps 749 mmHg 97%
    22:00 +16°C° 0 mm 2 mps 749 mmHg 97%
    23:00 +16°C° 0 mm 3 mps 749 mmHg 97%

    Day after tomorrow, 26 June, Wednesday

    Time Temperature Precipitation Wind Pressure Humidity
    00:00 +14°C° 0 mm 3 mps 749 mmHg 97%
    01:00 +14°C° 0 mm 3 mps 749 mmHg 97%
    02:00 +14°C° 0 mm 3 mps 750 mmHg 97%
    03:00 +14°C° 0 mm 3 mps 750 mmHg 97%
    04:00 +14°C° 0 mm 3 mps 750 mmHg 96%
    05:00 +14°C° 0 mm 4 mps 750 mmHg 96%
    06:00 +14°C° 0 mm 4 mps 751 mmHg 95%
    07:00 +15°C° 0 mm 4 mps 751 mmHg 94%
    08:00 +15°C° 0 mm 4 mps 751 mmHg 93%
    09:00 +15°C° 0 mm 4 mps 752 mmHg 92%
    10:00 +16°C° 0 mm 5 mps 752 mmHg 90%
    11:00 +17°C° 0 mm 5 mps 752 mmHg 88%
    12:00 +17°C° 0 mm 6 mps 753 mmHg 86%
    13:00 +17°C° 0 mm 6 mps 752 mmHg 85%
    14:00 +17°C° 0 mm 6 mps 752 mmHg 84%
    15:00 +19°C° 0 mm 6 mps 752 mmHg 83%
    16:00 +17°C° 0 mm 6 mps 752 mmHg 84%
    17:00 +17°C° 0 mm 6 mps 752 mmHg 85%
    18:00 +17°C° 0 mm 6 mps 751 mmHg 86%
    19:00 +16°C° 0 mm 6 mps 752 mmHg 87%
    20:00 +15°C° 0 mm 6 mps 752 mmHg 88%
    21:00 +14°C° 0 mm 6 mps 752 mmHg 89%
    22:00 +13°C° 0 mm 6 mps 752 mmHg 88%
    23:00 +11°C° 0 mm 6 mps 752 mmHg 87%

    27 June, Thursday

    Time Temperature Precipitation Wind Pressure Humidity
    00:00 +11°C° 0 mm 6 mps 752 mmHg 87%
    01:00 +11°C° 0 mm 6 mps 752 mmHg 87%
    02:00 +11°C° 0 mm 6 mps 752 mmHg 87%
    03:00 +10°C° 0 mm 6 mps 751 mmHg 87%
    04:00 +11°C° 0 mm 6 mps 751 mmHg 88%
    05:00 +11°C° 0 mm 6 mps 751 mmHg 89%
    06:00 +11°C° 0 mm 6 mps 751 mmHg 89%
    07:00 +12°C° 0 mm 7 mps 751 mmHg 86%
    08:00 +14°C° 0 mm 7 mps 751 mmHg 84%
    09:00 +15°C° 0 mm 7 mps 751 mmHg 81%
    10:00 +16°C° 0 mm 7 mps 751 mmHg 79%
    11:00 +18°C° 0 mm 7 mps 751 mmHg 78%
    12:00 +20°C° 0 mm 7 mps 751 mmHg 76%
    13:00 +20°C° 0 mm 7 mps 750 mmHg 76%
    14:00 +20°C° 0 mm 8 mps 750 mmHg 75%
    15:00 +21°C° 0 mm 8 mps 750 mmHg 75%
    16:00 +20°C° 0 mm 7 mps 749 mmHg 76%
    17:00 +18°C° 0 mm 7 mps 749 mmHg 77%
    18:00 +18°C° 0 mm 7 mps 749 mmHg 78%
    19:00 +16°C° 0 mm 6 mps 749 mmHg 79%
    20:00 +15°C° 0 mm 6 mps 749 mmHg 80%
    21:00 +14°C° 0 mm 5 mps 749 mmHg 81%
    22:00 +13°C° 0 mm 5 mps 749 mmHg 83%
    23:00 +12°C° 0 mm 5 mps 749 mmHg 84%

    28 June, Friday

    Time Temperature Precipitation Wind Pressure Humidity
    00:00 +12°C° 0 mm 5 mps 749 mmHg 86%
    01:00 +10°C° 0 mm 5 mps 748 mmHg 87%
    02:00 +11°C° 0 mm 4 mps 748 mmHg 88%
    03:00 +10°C° 0 mm 4 mps 748 mmHg 89%
    04:00 +11°C° 0 mm 4 mps 748 mmHg 88%
    05:00 +11°C° 0 mm 4 mps 747 mmHg 88%
    06:00 +12°C° 0 mm 5 mps 747 mmHg 87%
    07:00 +14°C° 0 mm 5 mps 747 mmHg 85%
    08:00 +15°C° 0 mm 5 mps 747 mmHg 82%
    09:00 +17°C° 0 mm 5 mps 747 mmHg 80%
    10:00 +20°C° 0 mm 6 mps 747 mmHg 77%
    11:00 +21°C° 0 mm 6 mps 746 mmHg 74%
    12:00 +22°C° 0 mm 6 mps 746 mmHg 71%
    13:00 +23°C° 0 mm 6 mps 746 mmHg 70%
    14:00 +24°C° 0 mm 6 mps 745 mmHg 69%
    15:00 +25°C° 0 mm 5 mps 745 mmHg 68%
    16:00 +23°C° 0 mm 5 mps 744 mmHg 72%
    17:00 +23°C° 0 mm 4 mps 744 mmHg 75%
    18:00 +22°C° 0 mm 4 mps 743 mmHg 79%
    19:00 +21°C° 0 mm 4 mps 743 mmHg 80%
    20:00 +20°C° 0 mm 4 mps 743 mmHg 80%
    21:00 +19°C° 0 mm 4 mps 743 mmHg 81%
    22:00 +19°C° 0 mm 3 mps 743 mmHg 80%
    23:00 +19°C° 0 mm 3 mps 743 mmHg 78%

    29 June, Saturday

    Time Temperature Precipitation Wind Pressure Humidity
    00:00 +19°C° 0 mm 2 mps 742 mmHg 77%
    01:00 +19°C° 0 mm 2 mps 742 mmHg 79%
    02:00 +19°C° 0 mm 1 mps 742 mmHg 80%
    03:00 +19°C° 0 mm 1 mps 742 mmHg 82%
    04:00 +20°C° 0 mm 1 mps 741 mmHg 84%
    05:00 +20°C° 0 mm 1 mps 741 mmHg 86%
    06:00 +19°C° 0 mm 2 mps 741 mmHg 89%
    07:00 +20°C° 0 mm 2 mps 741 mmHg 87%
    08:00 +21°C° 0 mm 2 mps 741 mmHg 86%
    09:00 +21°C° 0 mm 3 mps 742 mmHg 85%
    10:00 +22°C° 0 mm 4 mps 742 mmHg 80%
    11:00 +22°C° 0 mm 4 mps 742 mmHg 75%
    12:00 +22°C° 0 mm 5 mps 742 mmHg 70%
    13:00 +22°C° 0 mm 6 mps 742 mmHg 70%
    14:00 +22°C° 0 mm 6 mps 742 mmHg 69%
    15:00 +21°C° 0 mm 6 mps 742 mmHg 69%
    16:00 +20°C° 0 mm 6 mps 742 mmHg 72%
    17:00 +19°C° 0 mm 5 mps 742 mmHg 76%
    18:00 +19°C° 0 mm 5 mps 742 mmHg 79%
    19:00 +16°C° 0 mm 5 mps 742 mmHg 84%
    20:00 +14°C° 0 mm 4 mps 742 mmHg 88%
    21:00 +13°C° 0 mm 4 mps 742 mmHg 92%
    22:00 +13°C° 0 mm 4 mps 742 mmHg 93%
    23:00 +12°C° 0 mm 4 mps 742 mmHg 95%
    Show more